[[{"header":{"parameterUnit":"m.s-1","parameterCategory":1,"la1":30.2991,"la2":30.254,"lo1":-89.0895,"lo2":-89.0444,"dy":0.0017,"dx":0.0017,"nx":28,"ny":28,"refTime":"2026-02-04T09:00:00:Z","depth":0,"parameterNumber":2,"parameterNumberName":"U-component_of_WINDS"},"data":[0,0,0,0,0,0,0,0,0,0,0,0,0,0,0,0,0,0,0,0,0,0,0,0,0,0,0,0,0,0,0,0,0,0,0,0,0,0,0,0,0,0,0,0,0,0,0,0,0,0,0,0,0,0,0,0,0,0,2.1914,2.1914,0,2.1935,2.1936,2.1936,2.1911,2.191,2.1909,2.1908,2.193,2.1931,2.1933,0,0,0,0,0,0,0,0,0,0,0,0,0,2.1852,2.1853,2.1914,2.1914,2.1914,2.1935,2.1936,2.1936,2.1911,2.191,2.1909,2.1908,2.1929,2.1931,2.1933,0,0,0,0,0,0,0,0,0,0,0,0,0,2.1877,2.1854,2.1914,2.1904,2.1904,2.1935,2.1936,2.1936,2.1911,2.191,2.1909,2.1907,2.1929,2.1931,2.1933,2.1974,0,0,2.1939,2.194,0,0,0,0,0,0,0,0,2.1875,2.1879,2.1906,2.1905,2.1905,2.1919,2.1922,2.1949,2.1912,2.1908,2.1908,2.1907,2.1927,2.1929,2.1937,2.1975,2.1976,2.194,2.1941,2.1942,2.1943,0,0,0,0,0,0,0,2.1874,2.1878,2.1922,2.1906,2.1905,2.19,2.1902,2.1927,2.1925,2.1909,2.1907,2.191,2.1927,2.1934,2.1937,2.1976,2.194,2.1942,2.1943,2.1944,2.2052,2.2054,0,0,0,0,0,0,2.1873,2.1877,2.1922,2.1923,2.1886,2.1902,2.1904,2.1916,2.1925,2.1925,2.1911,2.1909,2.1931,2.1934,2.1937,2.1987,2.1942,2.1944,2.1945,2.205,2.2052,2.2054,0,0,0,0,0,0,2.1872,2.1877,2.1921,2.1899,2.1904,2.1904,2.1918,2.1917,2.1925,2.1927,2.1927,2.1919,2.193,2.1934,2.1966,2.1988,2.1945,2.1947,2.2049,2.2051,2.2053,2.2087,0,0,0,0,0,0,2.187,2.1877,2.1892,2.19,2.1906,2.1948,2.1919,2.1918,2.1929,2.1926,2.1934,2.1935,2.193,2.1963,2.1968,2.199,2.1949,2.2047,2.205,2.2052,2.2084,2.209,2.2096,0,0,0,0,0,2.1868,2.19,2.1893,2.1899,2.1925,2.195,2.1953,2.1947,2.193,2.1946,2.1948,2.1934,2.1985,2.1966,2.1972,2.1995,2.2045,2.2049,2.2052,2.2081,2.2089,2.2096,0,0,0,0,0,0,2.1894,2.1901,2.1893,2.1929,2.1939,2.1945,2.1965,2.1955,2.197,2.1966,2.1958,2.196,2.1994,2.1997,2.1977,2.2036,2.2012,2.2017,2.2032,2.204,2.2046,2.2044,2.195,0,0,0,0,0,2.1905,2.1924,2.1929,2.196,2.1966,2.1965,2.1975,2.197,2.198,2.1984,2.1988,2.1998,2.2016,2.2028,2.2045,2.2085,2.2087,2.2104,2.211,2.2114,2.2118,2.2141,2.2149,2.2066,2.2066,2.2066,0,0,2.1925,2.1931,2.1944,2.1966,2.1973,2.1994,2.1968,2.1991,2.2006,2.1987,2.2017,2.2021,2.2032,2.2068,2.2084,2.2072,2.2142,2.2119,2.2123,2.2124,2.2146,2.2153,2.216,2.2068,2.2068,2.2067,0,0,2.1974,2.198,2.2008,2.2016,2.2027,2.2027,2.2034,2.2042,2.2044,2.2074,2.2061,2.2079,2.211,2.2119,2.2128,2.2183,2.2171,2.2188,2.2219,2.2241,2.2247,2.2253,2.2273,2.2281,2.2193,2.2193,2.2193,0,2.1998,2.2029,2.2023,2.2047,2.2057,2.2042,2.207,2.2078,2.2095,2.2102,2.2089,2.2129,2.2136,2.2174,2.2188,2.2195,2.2203,2.2187,2.2247,2.2253,2.2258,2.2277,2.2285,2.2195,2.2195,2.2194,2.2194,0,2.2058,2.208,2.2101,2.2118,2.2131,2.2157,2.2155,2.2169,2.2164,2.2165,2.2196,2.2204,2.2223,2.2232,2.2226,2.227,2.2262,2.2248,2.2224,2.2268,2.2286,2.2293,2.2198,2.2197,2.2196,2.2196,0,0,2.2122,2.2138,2.2145,2.2154,2.2166,2.2183,2.2209,2.2228,2.2241,2.2253,2.2275,2.2303,2.2291,2.2301,2.2296,2.2316,2.236,2.23,2.23,2.2311,2.241,2.2421,2.2429,2.2353,2.2354,2.2355,2.2409,0,2.2172,2.2217,2.2213,2.2256,2.2276,2.2263,2.2286,2.2297,2.2299,2.2318,2.232,2.234,2.2322,2.2328,2.2347,2.2351,2.238,2.2347,2.2373,2.2374,2.2371,2.2438,2.2449,2.25,2.2416,2.2417,2.2418,0,2.2234,2.225,2.2295,2.2307,2.2315,2.2336,2.2354,2.2371,2.2384,2.2384,2.2396,2.2389,2.2416,2.2392,2.243,2.2408,2.2419,2.2422,2.2424,2.2426,2.2399,2.2442,2.2515,2.2523,2.2429,2.2428,2.2428,0,2.2277,2.231,2.2341,2.2349,2.2362,2.2377,2.2384,2.2395,2.2407,2.2423,2.2432,2.245,2.2461,2.2476,2.2474,2.2457,2.2513,2.2489,2.2515,2.2515,2.2526,2.2526,2.2603,2.2534,2.2534,2.2534,2.2534,0,2.2332,2.236,2.2361,2.238,2.2412,2.2408,2.244,2.2444,2.2455,2.2476,2.2466,2.2485,2.2482,2.2502,2.2501,2.2533,2.2538,2.2539,2.2539,2.254,2.254,2.2547,2.2543,2.2536,2.2535,2.2535,2.2535,0,2.2384,2.2386,2.2419,2.2431,2.2434,2.2457,2.2467,2.2486,2.2488,2.2514,2.252,2.2524,2.2547,2.2548,2.2574,2.2573,2.2613,2.2608,2.2609,2.2608,2.2634,2.2631,2.2718,2.2729,2.2653,2.2654,2.2654,0,2.2419,2.2441,2.2455,2.2468,2.2476,2.2497,2.251,2.2508,2.2522,2.2539,2.2556,2.2579,2.2596,2.2634,2.264,2.266,2.2656,2.2685,2.2659,2.266,2.2657,2.2655,2.2658,2.269,2.269,2.2691,2.2692,0,2.2481,2.2481,2.25,2.252,2.2536,2.2552,2.2566,2.2578,2.2577,2.2594,2.2618,2.2632,2.266,2.2682,2.2703,2.271,2.2701,2.27,2.2707,2.2709,2.2708,2.2709,2.2622,2.2698,2.2697,2.2697,2.2696,2.2696,2.2526,2.2545,2.2558,2.258,2.2591,2.2606,2.2624,2.263,2.265,2.2672,2.267,2.2697,2.2711,2.2738,2.2747,2.2768,2.2758,2.2768,2.2771,2.2773,2.2777,2.2705,2.2772,2.2772,2.2771,2.2771,2.2771,0,2.2587,2.2596,2.2616,2.2637,2.2655,2.2647,2.2663,2.2678,2.2702,2.2716,2.2734,2.2762,2.2785,2.2793,2.2815,2.2831,2.2828,2.2837,2.2835,2.2837,2.2784,2.2776,2.2839,2.2839,2.2839,2.2839,2.2839,2.2839,2.2621,2.2654,2.2656,2.2694,2.2703,2.2729,2.2739,2.2753,2.2764,2.2796,2.2815,2.2821,2.2832,2.2856,2.2876,2.2878,2.2887,2.2898,2.2898,2.2848,2.2841,2.2834,2.2827,2.29,2.29,2.295,2.295,2.2951]},{"header":{"parameterUnit":"m.s-1","parameterCategory":1,"la1":30.2991,"la2":30.254,"lo1":-89.0895,"lo2":-89.0444,"dy":0.0017,"dx":0.0017,"nx":28,"ny":28,"refTime":"2026-02-04T09:00:00:Z","depth":0,"parameterNumber":3,"parameterNumberName":"V-component_of_WINDS"},"data":[0,0,0,0,0,0,0,0,0,0,0,0,0,0,0,0,0,0,0,0,0,0,0,0,0,0,0,0,0,0,0,0,0,0,0,0,0,0,0,0,0,0,0,0,0,0,0,0,0,0,0,0,0,0,0,0,0,0,-7.2827,-7.2829,0,-7.2986,-7.2988,-7.299,-7.2952,-7.2949,-7.2945,-7.2943,-7.31,-7.3107,-7.3114,0,0,0,0,0,0,0,0,0,0,0,0,0,-7.2486,-7.2493,-7.2827,-7.2829,-7.2831,-7.2986,-7.2988,-7.299,-7.2952,-7.2948,-7.2945,-7.2941,-7.3098,-7.3106,-7.3115,0,0,0,0,0,0,0,0,0,0,0,0,0,-7.2639,-7.2495,-7.2827,-7.2831,-7.2833,-7.2986,-7.2988,-7.2991,-7.2953,-7.2948,-7.2944,-7.2939,-7.3095,-7.3105,-7.3116,-7.3273,0,0,-7.3148,-7.3153,0,0,0,0,0,0,0,0,-7.263,-7.2651,-7.2828,-7.2831,-7.2833,-7.2945,-7.2926,-7.3085,-7.2954,-7.2907,-7.2943,-7.2937,-7.3052,-7.3066,-7.3105,-7.328,-7.3287,-7.3149,-7.3156,-7.316,-7.3163,0,0,0,0,0,0,0,-7.262,-7.2644,-7.289,-7.2831,-7.2834,-7.2824,-7.284,-7.2956,-7.3003,-7.2911,-7.2908,-7.2928,-7.3052,-7.3095,-7.3109,-7.329,-7.3149,-7.3158,-7.3165,-7.3169,-7.3604,-7.3609,0,0,0,0,0,0,-7.2608,-7.2636,-7.2885,-7.2895,-7.2719,-7.2833,-7.2852,-7.2913,-7.3002,-7.3011,-7.2932,-7.2926,-7.308,-7.3097,-7.3114,-7.3306,-7.316,-7.317,-7.3176,-7.3599,-7.3605,-7.361,0,0,0,0,0,0,-7.26,-7.263,-7.2878,-7.2765,-7.2796,-7.2844,-7.2913,-7.2919,-7.2962,-7.3018,-7.3025,-7.2968,-7.3077,-7.3099,-7.3235,-7.3311,-7.3175,-7.3184,-7.3592,-7.36,-7.3608,-7.3689,0,0,0,0,0,0,-7.2591,-7.2628,-7.2689,-7.2766,-7.2802,-7.2998,-7.2918,-7.2925,-7.2981,-7.2975,-7.3053,-7.3062,-7.3075,-7.3219,-7.3245,-7.3323,-7.3193,-7.3586,-7.3596,-7.3605,-7.368,-7.3699,-7.3715,0,0,0,0,0,-7.2579,-7.2704,-7.2692,-7.2722,-7.2879,-7.3002,-7.3022,-7.3036,-7.2987,-7.3049,-7.3085,-7.3059,-7.3298,-7.3233,-7.3262,-7.3344,-7.3581,-7.3593,-7.3604,-7.3672,-7.3695,-7.3715,0,0,0,0,0,0,-7.2631,-7.2714,-7.2702,-7.2856,-7.2923,-7.2995,-7.3073,-7.306,-7.314,-7.313,-7.3142,-7.3161,-7.3299,-7.3335,-7.3261,-7.3502,-7.3432,-7.3451,-7.3474,-7.3496,-7.3513,-7.3502,-7.3201,0,0,0,0,0,-7.2661,-7.2755,-7.2821,-7.2951,-7.2985,-7.3024,-7.3078,-7.3083,-7.3152,-7.3179,-7.3225,-7.3292,-7.3382,-7.3441,-7.3527,-7.3685,-7.3702,-7.3756,-7.3773,-7.3787,-7.3803,-7.3891,-7.3916,-7.3649,-7.3649,-7.3649,0,0,-7.2722,-7.2779,-7.2837,-7.2963,-7.3015,-7.3112,-7.3047,-7.3152,-7.3224,-7.3194,-7.3326,-7.3362,-7.3437,-7.3586,-7.3653,-7.362,-7.388,-7.3802,-7.3813,-7.3821,-7.3905,-7.3931,-7.3953,-7.3657,-7.3655,-7.3654,0,0,-7.2885,-7.2937,-7.3052,-7.3106,-7.3187,-7.3213,-7.324,-7.3316,-7.334,-7.3473,-7.3454,-7.3539,-7.3693,-7.3748,-7.3797,-7.3983,-7.3963,-7.401,-7.4102,-7.4188,-7.4209,-7.4227,-7.4295,-7.4319,-7.4026,-7.4026,-7.4026,0,-7.295,-7.3097,-7.3111,-7.3219,-7.3275,-7.3256,-7.3372,-7.3424,-7.3528,-7.3567,-7.3528,-7.3725,-7.3773,-7.3935,-7.3981,-7.402,-7.4052,-7.4001,-7.4205,-7.4224,-7.4241,-7.4306,-7.4331,-7.4031,-7.403,-7.403,-7.4029,0,-7.3175,-7.3277,-7.3359,-7.3464,-7.3529,-7.364,-7.3671,-7.3735,-7.3736,-7.3765,-7.3901,-7.396,-7.4058,-7.4097,-7.4097,-7.426,-7.4237,-7.4202,-7.4132,-7.4272,-7.4333,-7.4358,-7.4039,-7.4037,-7.4035,-7.4034,0,0,-7.3373,-7.3486,-7.3516,-7.3565,-7.3654,-7.3732,-7.3843,-7.3942,-7.3997,-7.407,-7.4164,-7.4296,-7.4266,-7.432,-7.4327,-7.4402,-7.4548,-7.4358,-7.436,-7.4392,-7.4733,-7.4759,-7.4788,-7.4535,-7.454,-7.4544,-7.4727,0,-7.3544,-7.3741,-7.3759,-7.3935,-7.403,-7.4015,-7.4111,-7.4176,-7.4207,-7.4291,-7.4324,-7.4419,-7.437,-7.4403,-7.4477,-7.4515,-7.4617,-7.4501,-7.4622,-7.4626,-7.4605,-7.4819,-7.4847,-7.5017,-7.4751,-7.4755,-7.4758,0,-7.3769,-7.3853,-7.404,-7.4118,-7.4159,-7.4245,-7.4339,-7.442,-7.4493,-7.451,-7.4573,-7.457,-7.4684,-7.461,-7.4767,-7.4688,-7.4739,-7.4765,-7.4772,-7.4784,-7.4701,-7.4838,-7.5071,-7.5097,-7.4795,-7.4792,-7.4789,0,-7.3897,-7.4055,-7.4188,-7.423,-7.4324,-7.4386,-7.4428,-7.4497,-7.4556,-7.4637,-7.4676,-7.4768,-7.4819,-7.489,-7.4912,-7.4856,-7.5069,-7.4996,-7.5086,-7.5086,-7.5131,-7.5128,-7.5377,-7.5163,-7.5162,-7.5162,-7.5161,0,-7.4087,-7.4202,-7.4247,-7.4329,-7.4458,-7.4477,-7.4604,-7.4642,-7.4705,-7.4793,-7.4784,-7.4867,-7.4891,-7.4978,-7.4995,-7.5124,-7.5146,-7.5163,-7.5166,-7.5164,-7.5163,-7.5198,-7.5187,-7.5168,-7.5167,-7.5166,-7.5164,0,-7.425,-7.4285,-7.443,-7.4509,-7.4531,-7.4623,-7.469,-7.4769,-7.4799,-7.4912,-7.4939,-7.4986,-7.5088,-7.5118,-7.5239,-7.5251,-7.5402,-7.5394,-7.5379,-7.5379,-7.5467,-7.5459,-7.5748,-7.5787,-7.5546,-7.5548,-7.555,0,-7.4369,-7.4458,-7.4548,-7.4608,-7.4654,-7.475,-7.4811,-7.4833,-7.4897,-7.499,-7.5058,-7.516,-7.5242,-7.5407,-7.5451,-7.5545,-7.554,-7.5634,-7.5553,-7.555,-7.5543,-7.5537,-7.5547,-7.565,-7.5652,-7.5654,-7.5656,0,-7.4578,-7.4591,-7.4681,-7.4778,-7.4852,-7.4929,-7.5002,-7.5051,-7.5084,-7.5157,-7.5263,-7.5328,-7.5455,-7.5556,-7.5652,-7.5693,-7.5681,-7.5681,-7.5707,-7.5706,-7.5694,-7.5704,-7.5421,-7.5674,-7.5673,-7.5671,-7.567,-7.5669,-7.4724,-7.4803,-7.4879,-7.498,-7.5039,-7.5108,-7.5187,-7.5229,-7.5318,-7.5425,-7.5432,-7.5548,-7.5621,-7.5749,-7.5796,-7.5886,-7.5858,-7.5895,-7.5905,-7.5914,-7.5922,-7.568,-7.5903,-7.5903,-7.5902,-7.5902,-7.5902,0,-7.4932,-7.4982,-7.5074,-7.5179,-7.5259,-7.5242,-7.5324,-7.5391,-7.5494,-7.5564,-7.5647,-7.577,-7.5869,-7.5922,-7.6021,-7.6083,-7.6079,-7.6108,-7.6104,-7.6114,-7.5941,-7.5909,-7.6109,-7.6109,-7.6109,-7.6109,-7.6109,-7.6109,-7.505,-7.5184,-7.5208,-7.5371,-7.5419,-7.5534,-7.5582,-7.5646,-7.5703,-7.5842,-7.5925,-7.596,-7.6024,-7.6127,-7.6218,-7.6231,-7.6268,-7.63,-7.631,-7.6147,-7.6126,-7.6105,-7.6076,-7.6307,-7.6308,-7.6475,-7.6477,-7.6478]}]]